Weather Roundup
Issued by NWS

Home | Current Version | Previous Version | Graphics & Text | Print | Product List | Glossary Off
Versions: 1 2 3 4 5 6 7 8 9 10 11 12 13 14 15 16 17 18 19 20 21 22 23 24 25 26 27 28 29 30 31 32 33 34 35 36 37 38 39 40 41 42 43 44 45 46 47 48 49 50

000
NZUS93 KARX 231859
HRRWXR

CURRENT HOURLY OBSERVATIONS ACROSS
MUCH OF THE UPPER MISSISSIPPI VALLEY
NATIONAL WEATHER SERVICE LA CROSSE WI
200 PM CDT SAT MAY 23 2015


...SOUTHEAST MINNESOTA...


CITY           SKY/WX    TMP DP  RH WIND       PRES   REMARKS
ROCHESTER      MOSUNNY   72  47  40 E8        30.23F
ROCHESTER/MAYO FAIR      73  42  33 SE3       30.23S
WINONA         PTSUNNY   73  48  40 CALM      30.22F
AUSTIN         MOSUNNY   72  43  35 S15G21    30.21S
ALBERT LEA     MOSUNNY   75  39  27 S12G20    30.20F
DODGE CENTER   PTSUNNY   73  39  29 E6        30.22F
PRESTON        MOSUNNY   73  40  30 S16G22    30.22F
OWATONNA       MOSUNNY   73  39  29 S8        30.21F
FARIBAULT      PTSUNNY   72  39  30 E3        30.22S
$$

...ELSEWHERE IN MINNESOTA...


CITY           SKY/WX    TMP DP  RH WIND       PRES   REMARKS
MINNEAPOLIS    CLOUDY    72  43  35 E8        30.22F
INTNL FALLS    MOSUNNY   78  36  21 W8        30.13F
DULUTH         MOSUNNY   75  32  20 S12       30.18F
RED WING       PTSUNNY   73  43  33 SE5       30.21S
REDWOOD FALLS  CLOUDY    66  54  65 VRB5      30.20F
MANKATO        CLOUDY    70  43  37 SE10      30.21F
WORTHINGTON    CLOUDY    70  43  37 S18G24    30.17F
FAIRMONT       CLOUDY    72  43  35 SE14G22   30.17F
$$

...SOUTHWEST WISCONSIN...


CITY           SKY/WX    TMP DP  RH WIND       PRES   REMARKS
LA CROSSE      MOSUNNY   76  45  33 CALM      30.22F
PRAIRIE DU CHI MOSUNNY   78  42  28 E8        30.22F
BOSCOBEL       PTSUNNY   81  42  25 SW8       30.23F
LONE ROCK      NOT AVBL
PLATTEVILLE    SUNNY     76  41  28 SW8       30.25F
FORT MC COY    MOSUNNY   77  41  27 S7        30.24F
VIROQUA        FAIR      75  40  28 S6        30.25F
WIS DELLS      MOSUNNY   76  37  24 S7        30.25F
$$

...ELSEWHERE IN WISCONSIN...


CITY           SKY/WX    TMP DP  RH WIND       PRES   REMARKS
MILWAUKEE      MOSUNNY   72  41  32 SE17      30.28F
MADISON        MOSUNNY   76  39  26 SW6       30.25F
GREEN BAY      SUNNY     77  36  22 SW10      30.24F
EAU CLAIRE     NOT AVBL
BLACK RVR FLS  FAIR      77  36  23 W9        30.22F
MEDFORD        PTSUNNY   72  36  27 SW9G16    30.25S
WAUSAU         PTSUNNY   73  39  29 SW9       30.23F
WIS RAPIDS     CLOUDY    77  33  20 S10G22    30.24F
MARSHFIELD     CLOUDY    75  39  27 S10       30.23F
RICE LAKE      CLOUDY    71  41  34 SW10      30.26S
$$

...NORTHEAST IOWA...


CITY           SKY/WX    TMP DP  RH WIND       PRES   REMARKS
DECORAH        CLOUDY    75  43  31 S8G16     30.22F
MASON CITY     PTSUNNY   75  43  31 SE15G25   30.21F
CHARLES CITY   MOSUNNY   75  41  29 S20G32    30.20F
OELWEIN        SUNNY     77  41  27 S15       30.24S
$$

...ELSEWHERE IN IOWA...


CITY           SKY/WX    TMP DP  RH WIND       PRES   REMARKS
DES MOINES     CLOUDY    71  51  49 S15G22    30.20F
IOWA CITY      MOSUNNY   76  50  40 S10G21    30.24F
FORT DODGE     CLOUDY    70  48  46 S16G22    30.20S
$$

...NORTHERN ILLINOIS...


CITY           SKY/WX    TMP DP  RH WIND       PRES   REMARKS
CHICAGO-OHARE  MOSUNNY   78  41  26 SW10G18   30.27F
CHICAGO-MIDWAY PTSUNNY   80  42  25 SW12G17   30.27F
MOLINE         MOSUNNY   78  47  33 SE8G18    30.23F
ROCKFORD       MOSUNNY   79  44  28 S6        30.27F
PEORIA         MOSUNNY   79  51  37 S6        30.26F
$$

NOTE: "FAIR" INDICATES FEW OR NO CLOUDS BELOW 12,000 FEET WITH NO
SIGNIFICANT WEATHER AND/OR OBSTRUCTIONS TO VISIBILITY. WIND
SPEEDS ARE IN MILES-PER-HOUR.



USA.gov is the U.S. government's official web portal to all federal, state and local government web resources and services.